This demonstration page uses our WeatherBlox Daily Observations layout. Learn more.

Left ArrowRight Arrow

34.74481, -87.66753

Hourly Observations for February 4, 2020

Temp ( °F °C ) Dew Point ( °F °C ) Humidity (%) Winds ( mph kmh ) Pressure ( in mb ) Visibility ( mi km ) Precip ( " mm )
12:53 am 00:53 Partly Cloudy 64 17.8 49 9.4 58 58 SSW 13 20 29.93 1014 10 16 0.00 0.00
1:53 am 01:53 Mostly Cloudy 62 16.7 52 11.1 70 70 SSW 13 20 29.94 1014 10 16 0.00 0.00
2:53 am 02:53 Cloudy with Light Rain 60 15.6 54 12.2 80 80 S 8 13 29.93 1014 9 14 0.02 0.51
3:53 am 03:53 Mostly Cloudy 59 15 54 12.2 83 83 SSW 6 9 29.94 1014 10 16 0.02 0.51
4:53 am 04:53 Mostly Cloudy 61 16.1 55 12.8 81 81 SSW 13 20 29.94 1014 10 16 0.00 0.00
5:38 am 05:38 Cloudy 61 16.1 55 12.8 81 81 SSW 12 19 29.96 1014 10 16 0.00 0.00
5:50 am 05:50 Cloudy 61 16 55 13 83 83 SSW 13 20 29.95 1014 10 16 0.00 0.00
5:53 am 05:53 Cloudy 61 16.1 55 12.8 81 81 SSW 13 20 29.94 1014 10 16 0.00 0.00
6:53 am 06:53 Mostly Cloudy 61 16.1 56 13.3 84 84 S 15 24 29.93 1014 10 16 0.00 0.00
7:50 am 07:50 Cloudy 61 16 57 14 88 88 SSW 12 19 29.97 1015 10 16 0.01 0.25
7:53 am 07:53 Cloudy 60 15.6 57 13.9 90 90 SSW 13 20 29.96 1015 10 16 0.01 0.25
8:03 am 08:03 Cloudy with Light Rain 60 15.6 57 13.9 90 90 S 9 15 29.98 1015 10 16 0.00 0.00
8:53 am 08:53 Cloudy with Light Rain 61 16.1 56 13.3 84 84 S 12 19 29.96 1015 10 16 0.01 0.25
9:02 am 09:02 Cloudy 61 16.1 57 13.9 87 87 SSW 10 17 29.97 1015 10 16 0.00 0.00
9:12 am 09:12 Cloudy 61 16.1 57 13.9 87 87 SSW 15 24 29.97 1015 10 16 0.00 0.00
9:53 am 09:53 Cloudy with Light Rain 62 16.7 58 14.4 86 86 SSW 13 20 29.95 1014 10 16 0.00 0.00
10:14 am 10:14 Cloudy with Light Rain 62 16.7 58 14.4 86 86 SSW 12 19 29.95 1014 10 16 0.00 0.00
10:53 am 10:53 Cloudy 62 16.7 58 14.4 86 86 S 12 19 29.93 1013 10 16 0.01 0.25
11:53 am 11:53 Cloudy with Light Rain 62 16.7 58 14.4 86 86 S 12 19 29.90 1013 10 16 0.00 0.00
12:53 pm 12:53 Cloudy 64 17.8 59 15 84 84 SSW 12 19 29.87 1012 10 16 0.00 0.00
1:45 pm 13:45 Cloudy 66 18.9 58 14.4 75 75 SSW 14 22 29.85 1011 10 16 0.00 0.00
1:53 pm 13:53 Cloudy 66 18.9 59 15 78 78 SSW 16 26 29.84 1010 10 16 0.00 0.00
2:53 pm 14:53 Cloudy 67 19.4 60 15.6 79 79 SSW 17 28 29.83 1010 10 16 0.00 0.00
3:41 pm 15:41 Cloudy 67 19.4 59 15 76 76 SSW 13 20 29.84 1010 10 16 0.00 0.00
3:53 pm 15:53 Cloudy 67 19.4 59 15 76 76 SSW 15 24 29.83 1010 10 16 0.00 0.00
4:16 pm 16:16 Cloudy 67 19.4 59 15 76 76 SSW 12 19 29.84 1010 10 16 0.00 0.00
4:25 pm 16:25 Cloudy 67 19.4 59 15 76 76 SSW 13 20 29.83 1010 10 16 0.00 0.00
4:53 pm 16:53 Cloudy 67 19.4 60 15.6 79 79 SSW 13 20 29.83 1010 10 16 0.00 0.00
5:53 pm 17:53 Cloudy 67 19.4 60 15.6 79 79 SSW 15 24 29.84 1010 10 16 0.00 0.00
6:03 pm 18:03 Cloudy 67 19.4 60 15.6 79 79 SSW 15 24 29.84 1010 10 16 0.00 0.00
6:53 pm 18:53 Cloudy 67 19.4 60 15.6 79 79 S 12 19 29.85 1011 10 16 0.00 0.00
7:22 pm 19:22 Cloudy 67 19.4 60 15.6 79 79 S 13 20 29.85 1011 10 16 0.00 0.00
7:53 pm 19:53 Cloudy 67 19.4 60 15.6 79 79 S 10 17 29.84 1011 10 16 0.00 0.00
8:49 pm 20:49 Cloudy 66 19 61 16 83 83 SSW 10 17 29.85 1011 10 16 0.00 0.00
8:53 pm 20:53 Cloudy 67 19.4 61 16.1 81 81 SSW 12 19 29.85 1011 10 16 0.00 0.00
9:53 pm 21:53 Cloudy 67 19.4 61 16.1 81 81 SSW 10 17 29.85 1011 10 16 0.00 0.00
10:20 pm 22:20 Cloudy 67 19.4 61 16.1 81 81 SSW 10 17 29.85 1011 10 16 0.00 0.00
10:53 pm 22:53 Cloudy 67 19.4 62 16.7 84 84 SSW 9 15 29.85 1011 10 16 0.00 0.00
11:53 pm 23:53 Cloudy 67 19.4 62 16.7 84 84 S 8 13 29.84 1010 10 16 0.00 0.00

Powered by AerisWeather